Weather History for Jefferson City, MO

Change the Weather History Date:

Wednesday, September 11, 2013

  Actual Average Record
Temperature  
Mean Temperature 80 °F -  
Max Temperature 95 °F 84 °F 100 °F (1936)
Min Temperature 66 °F 56 °F 37 °F (1940)
Cooling Degree Days 14    
Growing Degree Days 30 (Base 50)    
Moisture  
Dew Point 64 °F    
Average Humidity 63    
Maximum Humidity 87    
Minimum Humidity 33    
Precipitation  
Precipitation 0.00 in - - ()
Sea Level Pressure  
Sea Level Pressure 30.05 in    
Wind  
Wind Speed 2 mph (SSW)    
Max Wind Speed 10 mph    
Max Gust Speed -    
Visibility 10 miles    
Events      
Averages and records for this station are not official NWS values.
T = Trace of Precipitation, MM = Missing Value Source: NWS Daily Summary

Daily Weather History Graph

Daily Weather History Graph

Search for Another Location

Airport:

Trip Planner

Search our weather history database for the weather conditions in past years. The results will help you decide how hot, cold, wet, or windy it might be!

Date:

Astronomy

Sep. 11, 2013 Rise Set
Actual Time 6:46 AM CDT 7:22 PM CDT
Civil Twilight 6:20 AM CDT 7:49 PM CDT
Nautical Twilight 5:48 AM CDT 8:20 PM CDT
Astronomical Twilight 5:16 AM CDT 8:53 PM CDT
Moon 1:10 PM CDT (9/11) 11:23 PM CDT (9/11)
Length of Visible Light 13h 29m
Length of Day
12h 35m
Waxing Crescent, 39% of the Moon is Illuminated
Sep 11
Waxing Crescent
Sep 12
First Quarter
Sep 19
Full
Sep 26
Last Quarter
Oct 4
New

Hourly Weather History & Observations

Time (CDT) Temp. Heat Index Dew Point Humidity Pressure Visibility Wind Dir Wind Speed Gust Speed Precip Events Conditions
12:53 AM 69.1 °F - 63.0 °F 81% 30.05 in 10.0 mi Calm Calm - N/A   Clear
1:53 AM 70.0 °F - 63.0 °F 78% 30.05 in 10.0 mi East 4.6 mph - N/A   Clear
2:53 AM 69.1 °F - 64.0 °F 84% 30.05 in 10.0 mi ESE 4.6 mph - N/A   Clear
3:53 AM 66.9 °F - 63.0 °F 87% 30.06 in 10.0 mi Calm Calm - N/A   Clear
4:53 AM 66.9 °F - 63.0 °F 87% 30.06 in 10.0 mi Calm Calm - N/A   Clear
5:53 AM 66.0 °F - 62.1 °F 87% 30.08 in 10.0 mi Calm Calm - N/A   Clear
6:53 AM 66.0 °F - 62.1 °F 87% 30.09 in 9.0 mi Calm Calm - N/A   Clear
7:53 AM 66.9 °F - 63.0 °F 87% 30.10 in 9.0 mi Calm Calm - N/A   Clear
8:53 AM 73.0 °F - 64.9 °F 76% 30.10 in 10.0 mi Calm Calm - N/A   Clear
9:53 AM 79.0 °F - 66.0 °F 64% 30.10 in 10.0 mi Calm Calm - N/A   Clear
10:53 AM 84.0 °F 87.0 °F 68.0 °F 58% 30.10 in 10.0 mi Calm Calm - N/A   Clear
11:53 AM 90.0 °F 91.7 °F 64.9 °F 43% 30.09 in 10.0 mi Calm Calm - N/A   Clear
12:53 PM 91.9 °F 92.5 °F 62.1 °F 37% 30.07 in 10.0 mi WSW 6.9 mph - N/A   Clear
1:53 PM 93.0 °F 93.8 °F 62.1 °F 36% 30.05 in 10.0 mi Calm Calm - N/A   Partly Cloudy
2:53 PM 93.0 °F 94.2 °F 63.0 °F 37% 30.03 in 10.0 mi NNW 6.9 mph - N/A   Partly Cloudy
3:53 PM 93.9 °F 95.2 °F 63.0 °F 36% 30.01 in 10.0 mi Calm Calm - N/A   Mostly Cloudy
4:53 PM 93.0 °F 92.7 °F 60.1 °F 33% 29.99 in 10.0 mi West 10.4 mph - N/A   Scattered Clouds
5:53 PM 93.0 °F 94.2 °F 63.0 °F 37% 29.99 in 10.0 mi WSW 3.5 mph - N/A   Scattered Clouds
6:53 PM 91.0 °F 91.5 °F 62.1 °F 38% 29.99 in 10.0 mi SW 4.6 mph - N/A   Clear
7:53 PM 84.0 °F 86.3 °F 66.0 °F 55% 30.00 in 9.0 mi Calm Calm - N/A   Clear
8:53 PM 81.0 °F 83.3 °F 66.9 °F 62% 30.01 in 10.0 mi Calm Calm - N/A   Clear
9:53 PM 77.0 °F - 66.9 °F 71% 30.02 in 10.0 mi ESE 3.5 mph - N/A   Clear
10:53 PM 73.9 °F - 66.9 °F 79% 30.01 in 9.0 mi Calm Calm - N/A   Clear
11:53 PM 73.9 °F - 66.9 °F 79% 30.01 in 9.0 mi Calm Calm - N/A   Clear